BEARDSLEY LAKE (BRD)

Elevation: 3398' · STANISLAUS R basin · Operator: US Bureau of Reclamation


Station comments:

04/14/2015Reservoir capacity updated from 77,600 to 97,800 from information found at http://ce-npdp-serv2.stanford.edu/DamDirectory/DamDetail.jsp?npdp_id=CA00263


Provisional data, subject to change.
Query executed Saturday at 11:23:37   clock

Select a sensor type for a plot of data.
Note: Reservoir Flows are daily averages.

Earlier

Date STORAGE    RES CHG    OUTFLOW    PPT INC   
 AF   AF   CFS   INCHES  
05/01/2015 34428 108 61 0.00
05/02/2015 34517 89 61 0.00
05/03/2015 34586 -- 69 0.00
05/04/2015 34651 65 65 0.00
05/05/2015 34730 -- 60 0.00
05/06/2015 34809 79 61 0.00
05/07/2015 34983 174 64 0.87
05/08/2015 35087 104 62 0.65
05/09/2015 35212 125 62 0.00
05/10/2015 35356 144 60 0.00
05/11/2015 35470 114 64 0.00
05/12/2015 35605 135 60 0.00
05/13/2015 35725 120 60 0.00
05/14/2015 35805 80 60 0.00
05/15/2015 36001 196 62 0.52
05/16/2015 36257 256 60 0.15
05/17/2015 36548 291 61 0.00
05/18/2015 36861 313 58 0.01
05/19/2015 37169 308 60 0.02
05/20/2015 37413 244 62 0.00
05/21/2015 37712 299 61 0.00
05/22/2015 37986 274 60 0.40
05/23/2015 39349 1363 60 0.08
05/24/2015 40764 1415 60 0.05
05/25/2015 42147 1383 63 0.00
05/26/2015 43546 1399 61 0.00
05/27/2015 44912 1366 65 0.00
05/28/2015 46304 1392 64 0.00
05/29/2015 47676 1372 62 0.00
05/30/2015 -- -- -- --

Later | Latest

Warning! This data is preliminary and subject to revision.

Show BRD Map | Plot BRD Data | 1 Month BRD Data | Real-Time BRD Data | BRD Info